TimeCDT,TemperatureF,Dew PointF,Humidity,Sea Level PressureIn,VisibilityMPH,Wind Direction,Wind SpeedMPH,Gust SpeedMPH,PrecipitationIn,Events,Conditions,WindDirDegrees,DateUTC
12:51 AM,41.0,35.1,79,30.04,10.0,SSW,8.1,-,N/A,,Clear,210,2013-05-04 05:51:00
1:51 AM,39.9,33.1,77,30.02,10.0,SW,6.9,-,N/A,,Clear,220,2013-05-04 06:51:00
2:51 AM,39.0,32.0,76,30.00,10.0,SSW,6.9,-,N/A,,Clear,210,2013-05-04 07:51:00
3:51 AM,42.1,33.1,70,29.99,10.0,SSW,8.1,-,N/A,,Clear,200,2013-05-04 08:51:00
4:51 AM,39.9,32.0,73,29.99,10.0,SSW,5.8,-,N/A,,Clear,200,2013-05-04 09:51:00
5:51 AM,37.0,30.9,79,29.98,10.0,Calm,Calm,-,N/A,,Clear,0,2013-05-04 10:51:00
6:51 AM,36.0,30.9,82,29.99,10.0,Calm,Calm,-,N/A,,Clear,0,2013-05-04 11:51:00
7:51 AM,46.0,37.9,73,29.99,10.0,Calm,Calm,-,N/A,,Clear,0,2013-05-04 12:51:00
8:51 AM,54.0,33.1,45,30.00,10.0,WSW,4.6,-,N/A,,Clear,240,2013-05-04 13:51:00
9:51 AM,66.9,30.0,25,29.98,10.0,WSW,15.0,24.2,N/A,,Clear,250,2013-05-04 14:51:00
10:51 AM,73.0,28.0,19,29.98,10.0,West,13.8,25.3,N/A,,Clear,280,2013-05-04 15:51:00
11:51 AM,73.9,27.0,18,29.98,10.0,NNW,13.8,19.6,N/A,,Clear,340,2013-05-04 16:51:00
12:51 PM,75.0,28.0,18,29.96,8.0,North,11.5,20.7,N/A,,Clear,360,2013-05-04 17:51:00
1:51 PM,75.9,28.0,17,29.94,10.0,NW,12.7,20.7,N/A,,Clear,310,2013-05-04 18:51:00
2:51 PM,79.0,27.0,15,29.92,10.0,WNW,10.4,21.9,N/A,,Clear,300,2013-05-04 19:51:00
3:51 PM,80.1,28.9,15,29.90,10.0,West,13.8,-,N/A,,Clear,270,2013-05-04 20:51:00
4:51 PM,81.0,28.9,15,29.88,10.0,NNW,16.1,21.9,N/A,,Clear,330,2013-05-04 21:51:00
5:51 PM,80.1,28.0,15,29.87,10.0,NNW,11.5,19.6,N/A,,Clear,340,2013-05-04 22:51:00
6:51 PM,77.0,28.9,17,29.88,10.0,North,11.5,-,N/A,,Clear,350,2013-05-04 23:51:00
7:51 PM,71.1,30.0,22,29.89,10.0,North,8.1,-,N/A,,Clear,350,2013-05-05 00:51:00
8:51 PM,60.1,34.0,38,29.93,10.0,North,4.6,-,N/A,,Clear,10,2013-05-05 01:51:00
9:51 PM,55.0,36.0,49,29.95,10.0,North,4.6,-,N/A,,Clear,10,2013-05-05 02:51:00
10:51 PM,55.9,35.1,45,29.97,10.0,NNW,5.8,-,N/A,,Clear,340,2013-05-05 03:51:00
11:51 PM,54.0,35.1,49,30.00,10.0,NE,10.4,-,N/A,,Clear,40,2013-05-05 04:51:00